Вернуться в каталог

STARLINK-4119

АктивенСвязьVLEO
NORAD 53026·PAYLOAD·🇺🇸 United States

Запущен Jul 7, 2022 с Cape Canaveral Space Force Station

Loading…

Ближайшие Пролёты (ближайшие 24 часа)

TLE

СвежийSource: CelesTrak SupGP

Эпоха: Sep 15, 2026, 02:18 UTC

1 53026C 22076AS  26258.09631944  .00024731  00000+0  79514-3 0  2585
2 53026  53.1571 299.3902 0001071 106.0866  35.8107 15.31695835    11

Отслеживайте STARLINK-4119 в реальном времени с AllMySat

Download on the App Store